Location: Boullarre
(49.1305°N, 3.0047°E)
Time: 09:35:16
(UTC+00:00)

MOS 1-B - Pass Details

Date: 03 February 2023
Orbit: 904 x 913 km, 99.4° (Epoch: 23 March)

Event Time Altitude Azimuth Distance (km) Brightness Sun altitude
Rises 18:14:28 0° 154° (SSE) 3,529 7.2 -14.4°
Reaches altitude 10° 18:16:52 10° 152° (SSE) 2,592 6.5 -14.8°
Maximum altitude 18:22:37 69° 70° (ENE) 974 4.3 -15.7°
Drops below altitude 10° 18:28:24 10° 348° (NNW) 2,614 6.8 -16.7°
Sets 18:30:50 0° 346° (NNW) 3,561 7.6 -17.1°
